AAL21 TXKF-FACT

Flight info

Callsign AAL21
Flight time N/A
Altitude 31000
Route BDA L576 SEAVR DCT FIVZE DCT DABAK/N0495F330 DCT TODIS DCT EGIMI DCT DIGOR/N0490F350 UL375 ISUPA DCT 13S016W 20S010W/N0481F370 25S000E 30S010E DCT OKDOG DCT APKIN DCT ASPIK ASPIK1A
Aircraft B77W/H-SDE1E2E3FGHIJ2J3J4J5M1RWXY/LB1D1

Departure

Time 2026-04-26 06:00
Airport L.F. Wade International Airport (TXKF)

Arrival

Time N/A
Airport Cape Town International Airport (FACT)
Time Latitude Longitude Altitude Speed Heading
2026-04-26 05:40 32.36224 -64.70276 33 ft 0 kts 247°
2026-04-26 05:50 32.36226 -64.70269 34 ft 4 kts 250°
2026-04-26 05:50 32.36230 -64.70239 31 ft 4 kts 280°
2026-04-26 05:51 32.36225 -64.70209 32 ft 3 kts 261°
2026-04-26 05:51 32.36228 -64.70186 34 ft 4 kts 285°
2026-04-26 05:51 32.36214 -64.70164 32 ft 4 kts 332°
2026-04-26 05:51 32.36199 -64.70156 34 ft 2 kts 336°
2026-04-26 05:52 32.36198 -64.70155 34 ft 0 kts 336°
2026-04-26 05:55 32.36215 -64.70164 35 ft 4 kts 336°
2026-04-26 05:55 32.36240 -64.70172 33 ft 4 kts 355°
2026-04-26 05:55 32.36263 -64.70156 33 ft 4 kts 44°
2026-04-26 05:55 32.36287 -64.70099 33 ft 12 kts 66°
2026-04-26 05:56 32.36322 -64.70007 33 ft 12 kts 66°
2026-04-26 05:56 32.36355 -64.69916 33 ft 12 kts 68°
2026-04-26 05:56 32.36387 -64.69821 33 ft 12 kts 68°
2026-04-26 05:56 32.36420 -64.69727 33 ft 12 kts 68°
2026-04-26 05:57 32.36452 -64.69634 33 ft 12 kts 68°
2026-04-26 05:57 32.36484 -64.69540 32 ft 12 kts 68°
2026-04-26 05:57 32.36515 -64.69456 32 ft 9 kts 61°
2026-04-26 05:57 32.36567 -64.69413 30 ft 10 kts 19°
2026-04-26 05:58 32.36640 -64.69375 30 ft 12 kts 44°
2026-04-26 05:58 32.36648 -64.69281 29 ft 11 kts 100°
2026-04-26 05:58 32.36646 -64.69269 30 ft 0 kts 102°
2026-04-26 05:59 32.36606 -64.69058 26 ft 61 kts 102°
2026-04-26 05:59 32.36480 -64.68296 28 ft 126 kts 101°
2026-04-26 05:59 32.36272 -64.67059 29 ft 179 kts 101°
2026-04-26 05:59 32.36030 -64.65568 459 ft 180 kts 100°
2026-04-26 06:00 32.35786 -64.64122 1034 ft 181 kts 101°
2026-04-26 06:00 32.35528 -64.62658 1504 ft 187 kts 100°
2026-04-26 06:00 32.35247 -64.61087 1741 ft 200 kts 101°
2026-04-26 06:00 32.34951 -64.59405 1888 ft 217 kts 100°
2026-04-26 06:01 32.34631 -64.57608 2057 ft 234 kts 104°
2026-04-26 06:01 32.33809 -64.55910 2143 ft 251 kts 141°
2026-04-26 06:01 32.32230 -64.54922 2405 ft 262 kts 157°
2026-04-26 06:01 32.30552 -64.54000 2862 ft 271 kts 154°
2026-04-26 06:02 32.28864 -64.53004 3406 ft 276 kts 154°
2026-04-26 06:02 32.27113 -64.51965 4026 ft 280 kts 154°
2026-04-26 06:02 32.25363 -64.50932 4645 ft 282 kts 155°
2026-04-26 06:02 32.23607 -64.49901 5230 ft 286 kts 155°
2026-04-26 06:03 32.21827 -64.48861 5828 ft 288 kts 155°
2026-04-26 06:03 32.20007 -64.47801 6421 ft 291 kts 156°
2026-04-26 06:03 32.18179 -64.46739 6979 ft 293 kts 156°
2026-04-26 06:03 32.16338 -64.45673 7574 ft 294 kts 155°
2026-04-26 06:04 32.14493 -64.44605 8131 ft 297 kts 155°
2026-04-26 06:04 32.12630 -64.43528 8679 ft 299 kts 155°
2026-04-26 06:04 32.10756 -64.42446 9232 ft 301 kts 155°
2026-04-26 06:04 32.08894 -64.41371 9783 ft 304 kts 155°
2026-04-26 06:05 32.06975 -64.40264 10260 ft 309 kts 155°
2026-04-26 06:05 32.04992 -64.39122 10414 ft 326 kts 155°
2026-04-26 06:05 32.02892 -64.37913 10566 ft 344 kts 155°
2026-04-26 06:05 32.00681 -64.36642 10717 ft 362 kts 155°
2026-04-26 06:06 31.98363 -64.35309 10968 ft 377 kts 155°
2026-04-26 06:06 31.95973 -64.33935 11441 ft 386 kts 155°
2026-04-26 06:06 31.93574 -64.32555 12027 ft 390 kts 155°
2026-04-26 06:06 31.91119 -64.31145 12744 ft 393 kts 155°
2026-04-26 06:07 31.88657 -64.29731 13481 ft 395 kts 155°
2026-04-26 06:07 31.86170 -64.28305 14157 ft 398 kts 155°
2026-04-26 06:07 31.83663 -64.26867 14761 ft 402 kts 155°
2026-04-26 06:07 31.81142 -64.25423 15370 ft 405 kts 155°
2026-04-26 06:08 31.78584 -64.23959 15985 ft 409 kts 156°
2026-04-26 06:08 31.76053 -64.22511 16585 ft 412 kts 156°
2026-04-26 06:08 31.73461 -64.21029 17173 ft 416 kts 156°
2026-04-26 06:08 31.70848 -64.19536 17734 ft 420 kts 156°
2026-04-26 06:09 31.68209 -64.18030 18304 ft 424 kts 156°
2026-04-26 06:09 31.65540 -64.16507 18803 ft 427 kts 156°
2026-04-26 06:09 31.62850 -64.14973 19317 ft 430 kts 156°
2026-04-26 06:09 31.60150 -64.13434 19830 ft 433 kts 156°
2026-04-26 06:10 31.57436 -64.11888 20323 ft 436 kts 156°
2026-04-26 06:10 31.54690 -64.10324 20814 ft 439 kts 156°
2026-04-26 06:10 31.51926 -64.08752 21285 ft 442 kts 156°
2026-04-26 06:10 31.49142 -64.07169 21760 ft 446 kts 156°
2026-04-26 06:11 31.46373 -64.05596 22230 ft 449 kts 156°
2026-04-26 06:11 31.43548 -64.03992 22668 ft 452 kts 156°
2026-04-26 06:11 31.40713 -64.02384 23146 ft 454 kts 156°
2026-04-26 06:11 31.37852 -64.00762 23609 ft 457 kts 156°
2026-04-26 06:12 31.34970 -63.99129 23973 ft 460 kts 156°
2026-04-26 06:12 31.32082 -63.97494 24341 ft 463 kts 156°
2026-04-26 06:12 31.29164 -63.95843 24719 ft 465 kts 156°
2026-04-26 06:12 31.26249 -63.94194 25083 ft 468 kts 156°
2026-04-26 06:13 31.23326 -63.92543 25468 ft 470 kts 156°
2026-04-26 06:13 31.20392 -63.90886 25829 ft 473 kts 156°
2026-04-26 06:13 31.17427 -63.89213 26183 ft 475 kts 156°
2026-04-26 06:13 31.14440 -63.87529 26542 ft 477 kts 156°
2026-04-26 06:14 31.11443 -63.85840 26898 ft 479 kts 156°
2026-04-26 06:14 31.08415 -63.84136 27232 ft 481 kts 156°
2026-04-26 06:14 31.05387 -63.82432 27549 ft 484 kts 156°
2026-04-26 06:14 31.02346 -63.80722 27859 ft 486 kts 156°
2026-04-26 06:15 30.99346 -63.79037 28160 ft 489 kts 156°
2026-04-26 06:15 30.96272 -63.77311 28460 ft 491 kts 156°
2026-04-26 06:15 30.93181 -63.75577 28744 ft 493 kts 156°
2026-04-26 06:15 30.90122 -63.73862 29011 ft 495 kts 156°
2026-04-26 06:16 30.86965 -63.72091 29291 ft 497 kts 156°
2026-04-26 06:16 30.83877 -63.70362 29623 ft 497 kts 157°
2026-04-26 06:16 30.80766 -63.68621 30008 ft 496 kts 157°
2026-04-26 06:16 30.77662 -63.66887 30362 ft 495 kts 157°
2026-04-26 06:17 30.74557 -63.65152 30659 ft 494 kts 157°
2026-04-26 06:17 30.71449 -63.63418 30929 ft 494 kts 157°
2026-04-26 06:17 30.68330 -63.61679 31011 ft 498 kts 157°
2026-04-26 06:18 30.62075 -63.58194 31056 ft 496 kts 157°
2026-04-26 06:18 30.55872 -63.54740 31061 ft 493 kts 157°
2026-04-26 06:19 30.49733 -63.51330 31072 ft 492 kts 157°
2026-04-26 06:19 30.43567 -63.47909 31071 ft 492 kts 157°
2026-04-26 06:20 30.37429 -63.44509 31070 ft 493 kts 157°
2026-04-26 06:20 30.31200 -63.41063 31064 ft 494 kts 158°
2026-04-26 06:21 30.24979 -63.37626 31063 ft 494 kts 158°
2026-04-26 06:21 30.18761 -63.34195 31065 ft 495 kts 158°
2026-04-26 06:22 30.12554 -63.30776 31074 ft 495 kts 158°
2026-04-26 06:22 30.06347 -63.27361 31066 ft 495 kts 158°
2026-04-26 06:23 30.00121 -63.23940 31059 ft 495 kts 158°
2026-04-26 06:23 29.93962 -63.20560 31069 ft 495 kts 158°
2026-04-26 06:24 29.87711 -63.17136 31069 ft 494 kts 158°
2026-04-26 06:24 29.81491 -63.13732 31062 ft 494 kts 158°
2026-04-26 06:25 29.75321 -63.10359 31067 ft 494 kts 159°
2026-04-26 06:25 29.69121 -63.06917 31053 ft 495 kts 155°
2026-04-26 06:26 29.63176 -63.02872 31065 ft 496 kts 153°
2026-04-26 06:26 29.57404 -62.98853 31064 ft 497 kts 153°
2026-04-26 06:27 29.51477 -62.94754 31059 ft 497 kts 153°
2026-04-26 06:27 29.45577 -62.90706 31061 ft 497 kts 153°
2026-04-26 06:28 29.39634 -62.86643 31051 ft 497 kts 153°
2026-04-26 06:28 29.33734 -62.82615 31050 ft 497 kts 153°
2026-04-26 06:29 29.27733 -62.78522 31060 ft 498 kts 153°
2026-04-26 06:29 29.21778 -62.74465 31061 ft 498 kts 153°
2026-04-26 06:30 29.15844 -62.70428 31060 ft 498 kts 153°
2026-04-26 06:30 29.09874 -62.66372 31046 ft 499 kts 154°
2026-04-26 06:31 29.03907 -62.62324 31056 ft 498 kts 154°
2026-04-26 06:31 28.97985 -62.58311 31058 ft 499 kts 154°
2026-04-26 06:32 28.92018 -62.54274 31056 ft 499 kts 154°
2026-04-26 06:32 28.86042 -62.50236 31057 ft 499 kts 154°
2026-04-26 06:33 28.80067 -62.46204 31060 ft 498 kts 154°
2026-04-26 06:33 28.74121 -62.42196 31055 ft 498 kts 155°
2026-04-26 06:34 28.68146 -62.38176 31059 ft 498 kts 155°
2026-04-26 06:34 28.62169 -62.34159 31057 ft 499 kts 155°
2026-04-26 06:35 28.56189 -62.30146 31058 ft 499 kts 155°
2026-04-26 06:35 28.50204 -62.26134 31058 ft 499 kts 155°
2026-04-26 06:36 28.44210 -62.22121 31034 ft 499 kts 156°
2026-04-26 06:36 28.38249 -62.18137 31050 ft 499 kts 156°
2026-04-26 06:37 28.32259 -62.14138 31057 ft 499 kts 156°
2026-04-26 06:37 28.26282 -62.10153 31054 ft 500 kts 156°
2026-04-26 06:38 28.20261 -62.06143 31053 ft 500 kts 156°
2026-04-26 06:38 28.14295 -62.02176 31044 ft 500 kts 156°
2026-04-26 06:39 28.08419 -61.98273 31051 ft 500 kts 156°
2026-04-26 06:39 28.02410 -61.94288 31053 ft 500 kts 156°
2026-04-26 06:40 27.96402 -61.90308 31047 ft 501 kts 156°
2026-04-26 06:40 27.90424 -61.86353 31058 ft 500 kts 156°
2026-04-26 06:41 27.84412 -61.82381 31042 ft 501 kts 157°
2026-04-26 06:41 27.78383 -61.78403 31054 ft 501 kts 157°
2026-04-26 06:42 27.73389 -61.75112 31053 ft 501 kts 157°
2026-04-26 06:42 27.67358 -61.71143 31052 ft 501 kts 157°
2026-04-26 06:43 27.61400 -61.67226 31052 ft 502 kts 157°
2026-04-26 06:43 27.55297 -61.63218 31050 ft 502 kts 157°
2026-04-26 06:44 27.49239 -61.59245 31053 ft 502 kts 157°
2026-04-26 06:44 27.43223 -61.55305 31052 ft 502 kts 157°
2026-04-26 06:45 27.37201 -61.51367 31048 ft 502 kts 157°
2026-04-26 06:45 27.31147 -61.47412 31049 ft 502 kts 157°
2026-04-26 06:46 27.25100 -61.43467 31025 ft 501 kts 157°
2026-04-26 06:46 27.19111 -61.39564 31042 ft 501 kts 157°
2026-04-26 06:47 27.13075 -61.35637 31048 ft 501 kts 158°
2026-04-26 06:47 27.07039 -61.31714 31044 ft 501 kts 158°
2026-04-26 06:48 27.01034 -61.27816 31044 ft 501 kts 158°
2026-04-26 06:48 26.95013 -61.23912 31027 ft 501 kts 158°
2026-04-26 06:49 26.88985 -61.20009 31043 ft 500 kts 158°
2026-04-26 06:49 26.82958 -61.16112 31044 ft 499 kts 158°
2026-04-26 06:50 26.76964 -61.12241 31043 ft 499 kts 158°
2026-04-26 06:50 26.70956 -61.08365 31044 ft 499 kts 158°
2026-04-26 06:51 26.64927 -61.04480 31044 ft 499 kts 158°
2026-04-26 06:51 26.56042 -60.98765 31039 ft 499 kts 158°
2026-04-26 06:52 26.50005 -60.94887 31042 ft 499 kts 158°
2026-04-26 06:52 26.44011 -60.91042 31041 ft 500 kts 158°
2026-04-26 06:53 26.37982 -60.87179 31042 ft 500 kts 158°
2026-04-26 06:53 26.31949 -60.83317 31018 ft 500 kts 158°
2026-04-26 06:54 26.25890 -60.79444 31031 ft 500 kts 158°
2026-04-26 06:54 26.19849 -60.75587 31040 ft 500 kts 158°
2026-04-26 06:55 26.13831 -60.71750 31033 ft 501 kts 158°
2026-04-26 06:55 26.07784 -60.67899 31039 ft 501 kts 158°
2026-04-26 06:56 26.01715 -60.64038 31035 ft 502 kts 158°
2026-04-26 06:56 25.95695 -60.60213 31041 ft 502 kts 158°
2026-04-26 06:57 25.89611 -60.56352 31036 ft 503 kts 158°
2026-04-26 06:57 25.83522 -60.52492 31036 ft 503 kts 158°
2026-04-26 06:58 25.77429 -60.48634 31036 ft 503 kts 158°
2026-04-26 06:58 25.71338 -60.44782 31026 ft 503 kts 158°
2026-04-26 06:59 25.65293 -60.40964 31029 ft 503 kts 158°
2026-04-26 06:59 25.59195 -60.37118 31037 ft 505 kts 158°
2026-04-26 07:00 25.53067 -60.33257 31039 ft 506 kts 158°
2026-04-26 07:00 25.46938 -60.29400 31040 ft 507 kts 158°
2026-04-26 07:01 25.40834 -60.25562 31039 ft 507 kts 158°
2026-04-26 07:01 25.34679 -60.21696 31030 ft 507 kts 158°
2026-04-26 07:02 25.28532 -60.17840 31040 ft 507 kts 158°
2026-04-26 07:02 25.22382 -60.13988 31029 ft 508 kts 158°
2026-04-26 07:03 25.16241 -60.10145 31034 ft 508 kts 158°
2026-04-26 07:03 25.10089 -60.06298 31037 ft 508 kts 158°
2026-04-26 07:04 25.03986 -60.02445 31026 ft 511 kts 155°
2026-04-26 07:04 24.98463 -59.97663 31054 ft 525 kts 143°
2026-04-26 07:05 24.93558 -59.91575 31054 ft 533 kts 135°
2026-04-26 07:05 24.88910 -59.85191 31043 ft 534 kts 135°
2026-04-26 07:06 24.84250 -59.78821 31037 ft 534 kts 135°
2026-04-26 07:06 24.79545 -59.72474 31038 ft 534 kts 136°
2026-04-26 07:07 24.74857 -59.66193 31041 ft 534 kts 136°
2026-04-26 07:07 24.70128 -59.59868 31021 ft 534 kts 136°
2026-04-26 07:08 24.65416 -59.53567 31034 ft 532 kts 136°
2026-04-26 07:08 24.60750 -59.47334 31034 ft 532 kts 136°
2026-04-26 07:09 24.56025 -59.41031 31038 ft 532 kts 136°
2026-04-26 07:09 24.51307 -59.34747 31036 ft 532 kts 136°
2026-04-26 07:11 24.39566 -59.19139 31034 ft 531 kts 136°
2026-04-26 07:11 24.34853 -59.12889 31036 ft 531 kts 136°
2026-04-26 07:12 24.30149 -59.06659 31032 ft 531 kts 136°
2026-04-26 07:12 24.25428 -59.00414 31032 ft 530 kts 136°
2026-04-26 07:13 24.20788 -58.94283 31032 ft 530 kts 136°
2026-04-26 07:13 24.16074 -58.88064 31032 ft 530 kts 136°
2026-04-26 07:14 24.11368 -58.81862 31030 ft 530 kts 136°
2026-04-26 07:14 24.06657 -58.75662 31031 ft 530 kts 136°
2026-04-26 07:15 24.01967 -58.69497 31030 ft 530 kts 136°
2026-04-26 07:15 23.97254 -58.63310 31030 ft 530 kts 136°
2026-04-26 07:16 23.92532 -58.57118 31006 ft 530 kts 136°
2026-04-26 07:16 23.87843 -58.50976 31023 ft 527 kts 136°
2026-04-26 07:17 23.83149 -58.44835 31019 ft 525 kts 136°
2026-04-26 07:17 23.78472 -58.38725 31025 ft 523 kts 136°
2026-04-26 07:18 23.73827 -58.32665 31021 ft 522 kts 136°
2026-04-26 07:18 23.69145 -58.26565 31022 ft 522 kts 136°
2026-04-26 07:19 23.64537 -58.20570 31030 ft 522 kts 136°
2026-04-26 07:19 23.59839 -58.14464 31029 ft 523 kts 136°
2026-04-26 07:20 23.55158 -58.08386 31031 ft 523 kts 136°
2026-04-26 07:20 23.50469 -58.02306 31018 ft 524 kts 136°
2026-04-26 07:21 23.45903 -57.96393 31023 ft 524 kts 136°
2026-04-26 07:21 23.41199 -57.90307 31019 ft 524 kts 136°
2026-04-26 07:22 23.36498 -57.84233 31020 ft 525 kts 136°
2026-04-26 07:22 23.31820 -57.78195 31026 ft 525 kts 136°
2026-04-26 07:23 23.27098 -57.72108 31026 ft 525 kts 136°
2026-04-26 07:23 23.22384 -57.66039 31024 ft 525 kts 136°
2026-04-26 07:24 23.17666 -57.59972 31019 ft 525 kts 136°
2026-04-26 07:24 23.12963 -57.53933 31018 ft 526 kts 136°
2026-04-26 07:25 23.08224 -57.47856 31029 ft 527 kts 136°
2026-04-26 07:25 23.03468 -57.41762 31020 ft 529 kts 136°
2026-04-26 07:26 22.98719 -57.35684 31013 ft 529 kts 136°
2026-04-26 07:26 22.93948 -57.29584 31027 ft 530 kts 137°
2026-04-26 07:27 22.89199 -57.23522 31023 ft 530 kts 137°
2026-04-26 07:27 22.84415 -57.17421 31021 ft 531 kts 137°
2026-04-26 07:28 22.79627 -57.11322 31024 ft 530 kts 137°
2026-04-26 07:28 22.74835 -57.05225 31007 ft 530 kts 137°
2026-04-26 07:29 22.70153 -56.99275 31022 ft 530 kts 137°
2026-04-26 07:29 22.65364 -56.93198 31023 ft 530 kts 137°
2026-04-26 07:30 22.60573 -56.87125 31023 ft 530 kts 137°
2026-04-26 07:30 22.56588 -56.82078 31020 ft 530 kts 137°
2026-04-26 07:31 22.51807 -56.76030 31021 ft 529 kts 137°
2026-04-26 07:31 22.47018 -56.69978 31025 ft 528 kts 137°
2026-04-26 07:32 22.42238 -56.63946 31022 ft 528 kts 137°
2026-04-26 07:32 22.37462 -56.57925 31013 ft 528 kts 137°
2026-04-26 07:33 22.32683 -56.51907 31020 ft 526 kts 137°
2026-04-26 07:33 22.27903 -56.45895 31019 ft 526 kts 137°
2026-04-26 07:34 22.23179 -56.39962 31020 ft 525 kts 137°
2026-04-26 07:34 22.18402 -56.33967 31019 ft 525 kts 137°
2026-04-26 07:35 22.13628 -56.27985 31028 ft 525 kts 137°
2026-04-26 07:35 22.08861 -56.22016 31027 ft 526 kts 137°
2026-04-26 07:36 22.04078 -56.16035 31030 ft 526 kts 137°
2026-04-26 07:36 21.99365 -56.10147 30993 ft 526 kts 137°
2026-04-26 07:37 21.94584 -56.04182 31021 ft 525 kts 137°
2026-04-26 07:37 21.89924 -55.98373 31021 ft 525 kts 137°
2026-04-26 07:38 21.85142 -55.92420 31022 ft 525 kts 137°
2026-04-26 07:38 21.80358 -55.86470 31023 ft 525 kts 137°
2026-04-26 07:39 21.75597 -55.80556 31021 ft 525 kts 137°
2026-04-26 07:39 21.70811 -55.74617 31019 ft 525 kts 137°
2026-04-26 07:40 21.66020 -55.68678 31020 ft 525 kts 137°
2026-04-26 07:40 21.61248 -55.62770 31006 ft 525 kts 137°
2026-04-26 07:41 21.56482 -55.56875 31018 ft 524 kts 137°
2026-04-26 07:41 21.51699 -55.50966 31017 ft 523 kts 137°
2026-04-26 07:42 21.46909 -55.45055 31031 ft 523 kts 137°
2026-04-26 07:42 21.42117 -55.39149 31020 ft 523 kts 137°
2026-04-26 07:43 21.37361 -55.33292 31021 ft 524 kts 137°
2026-04-26 07:43 21.32566 -55.27394 31030 ft 524 kts 137°
2026-04-26 07:44 21.27773 -55.21505 31028 ft 524 kts 137°
2026-04-26 07:44 21.22978 -55.15620 31024 ft 524 kts 137°
2026-04-26 07:45 21.18177 -55.09732 31026 ft 523 kts 137°
2026-04-26 07:45 21.13385 -55.03862 31031 ft 523 kts 137°
2026-04-26 07:46 21.08668 -54.98091 31022 ft 523 kts 137°
2026-04-26 07:46 21.03903 -54.92268 31030 ft 523 kts 137°
2026-04-26 07:47 20.99113 -54.86420 31030 ft 523 kts 137°
2026-04-26 07:47 20.94302 -54.80553 31030 ft 523 kts 137°
2026-04-26 07:48 20.89530 -54.74739 31029 ft 523 kts 137°
2026-04-26 07:48 20.84725 -54.68891 31036 ft 523 kts 137°
2026-04-26 07:49 20.79917 -54.63046 31026 ft 523 kts 137°
2026-04-26 07:49 20.75104 -54.57200 31036 ft 523 kts 137°
2026-04-26 07:50 20.67873 -54.48430 31035 ft 524 kts 137°
2026-04-26 07:50 20.63053 -54.42591 31035 ft 524 kts 137°
2026-04-26 07:51 20.58251 -54.36781 31028 ft 525 kts 137°
2026-04-26 07:51 20.53408 -54.30926 31035 ft 525 kts 137°
2026-04-26 07:52 20.48578 -54.25094 31036 ft 525 kts 137°
2026-04-26 07:52 20.43772 -54.19297 31035 ft 525 kts 137°
2026-04-26 07:53 20.38937 -54.13469 31037 ft 525 kts 137°
2026-04-26 07:53 20.34094 -54.07640 31036 ft 525 kts 137°
2026-04-26 07:54 20.29250 -54.01814 31036 ft 525 kts 137°
2026-04-26 07:54 20.24526 -53.96139 31030 ft 525 kts 137°
2026-04-26 07:55 20.19729 -53.90382 31043 ft 525 kts 137°
2026-04-26 07:55 20.14831 -53.84510 31041 ft 525 kts 137°
2026-04-26 07:56 20.10008 -53.78733 31042 ft 525 kts 137°
2026-04-26 07:56 20.05150 -53.72920 31030 ft 525 kts 137°
2026-04-26 07:57 20.00319 -53.67145 31041 ft 525 kts 137°
2026-04-26 07:57 19.95437 -53.61315 31041 ft 525 kts 137°
2026-04-26 07:58 19.90574 -53.55514 31041 ft 525 kts 137°
2026-04-26 07:58 19.85710 -53.49717 31041 ft 525 kts 137°
2026-04-26 07:59 19.80868 -53.43952 31040 ft 525 kts 137°
2026-04-26 07:59 19.75990 -53.38152 31040 ft 525 kts 137°
2026-04-26 08:00 19.71117 -53.32361 31043 ft 525 kts 137°
2026-04-26 08:00 19.66251 -53.26584 31044 ft 524 kts 137°
2026-04-26 08:01 19.61418 -53.20854 31040 ft 524 kts 136°
2026-04-26 08:01 19.56556 -53.15094 31041 ft 524 kts 136°
2026-04-26 08:02 19.51696 -53.09342 31042 ft 524 kts 136°
2026-04-26 08:02 19.46815 -53.03571 31044 ft 523 kts 136°
2026-04-26 08:03 19.42082 -52.97980 31059 ft 523 kts 136°
2026-04-26 08:03 19.37209 -52.92230 31038 ft 523 kts 136°
2026-04-26 08:04 19.32389 -52.86546 31048 ft 523 kts 136°
2026-04-26 08:04 19.27517 -52.80808 31043 ft 521 kts 136°
2026-04-26 08:05 19.22672 -52.75106 31053 ft 519 kts 136°
2026-04-26 08:05 19.17846 -52.69433 31049 ft 517 kts 136°
2026-04-26 08:06 19.13063 -52.63815 31047 ft 516 kts 136°
2026-04-26 08:06 19.08259 -52.58179 31049 ft 516 kts 136°
2026-04-26 08:07 19.03450 -52.52542 31050 ft 516 kts 136°
2026-04-26 08:07 18.98638 -52.46906 31050 ft 516 kts 136°
2026-04-26 08:08 18.93823 -52.41273 31045 ft 517 kts 136°
2026-04-26 08:08 18.89029 -52.35668 31053 ft 517 kts 136°
2026-04-26 08:09 18.84207 -52.30036 31051 ft 517 kts 136°
2026-04-26 08:09 18.79373 -52.24396 31052 ft 517 kts 136°
2026-04-26 08:10 18.74552 -52.18776 31049 ft 516 kts 136°
2026-04-26 08:10 18.69728 -52.13156 31051 ft 516 kts 136°
2026-04-26 08:11 18.64956 -52.07604 31049 ft 516 kts 136°
2026-04-26 08:11 18.60115 -52.01976 31048 ft 516 kts 136°
2026-04-26 08:12 18.55399 -51.96499 31040 ft 516 kts 136°
2026-04-26 08:12 18.50593 -51.90921 31055 ft 516 kts 136°
2026-04-26 08:13 18.45803 -51.85367 31052 ft 516 kts 136°
2026-04-26 08:13 18.40930 -51.79722 31049 ft 516 kts 136°
2026-04-26 08:14 18.36085 -51.74115 31052 ft 517 kts 136°
2026-04-26 08:14 18.31246 -51.68519 31051 ft 518 kts 136°
2026-04-26 08:15 18.26420 -51.62943 31055 ft 518 kts 136°
2026-04-26 08:15 18.21573 -51.57348 31048 ft 518 kts 136°
2026-04-26 08:16 18.16696 -51.51723 31051 ft 518 kts 136°
2026-04-26 08:16 18.11835 -51.46121 31056 ft 518 kts 136°
2026-04-26 08:17 18.07789 -51.41462 31051 ft 518 kts 136°
2026-04-26 08:17 18.02138 -51.34960 31053 ft 518 kts 136°
2026-04-26 08:18 17.98193 -51.30194 31048 ft 520 kts 132°
2026-04-26 08:18 17.93710 -51.24197 31057 ft 521 kts 131°
2026-04-26 08:19 17.89279 -51.18208 31055 ft 522 kts 131°
2026-04-26 08:19 17.84832 -51.12238 31052 ft 522 kts 131°
2026-04-26 08:20 17.80323 -51.06220 31046 ft 521 kts 131°
2026-04-26 08:20 17.75828 -51.00234 31050 ft 521 kts 131°
2026-04-26 08:21 17.71481 -50.94449 31051 ft 521 kts 131°
2026-04-26 08:21 17.66997 -50.88485 31052 ft 520 kts 131°
2026-04-26 08:22 17.62507 -50.82518 31052 ft 521 kts 131°
2026-04-26 08:22 17.58041 -50.76589 31054 ft 521 kts 131°
2026-04-26 08:23 17.53569 -50.70656 31053 ft 521 kts 131°
2026-04-26 08:23 17.49049 -50.64666 31051 ft 521 kts 131°
2026-04-26 08:24 17.44551 -50.58710 31051 ft 521 kts 131°
2026-04-26 08:24 17.40047 -50.52750 31052 ft 521 kts 131°
2026-04-26 08:25 17.35546 -50.46800 31049 ft 520 kts 131°
2026-04-26 08:25 17.31083 -50.40905 31049 ft 519 kts 131°
2026-04-26 08:26 17.26593 -50.34980 31052 ft 519 kts 131°
2026-04-26 08:26 17.22109 -50.29069 31052 ft 519 kts 131°
2026-04-26 08:27 17.17616 -50.23151 31052 ft 519 kts 131°
2026-04-26 08:27 17.13149 -50.17271 31052 ft 519 kts 131°
2026-04-26 08:28 17.08655 -50.11362 31051 ft 519 kts 131°
2026-04-26 08:28 17.04169 -50.05468 31053 ft 519 kts 131°
2026-04-26 08:29 16.99814 -49.99750 31043 ft 517 kts 131°
2026-04-26 08:29 16.95344 -49.93886 31044 ft 516 kts 131°
2026-04-26 08:30 16.90855 -49.88004 31058 ft 515 kts 131°
2026-04-26 08:30 16.86382 -49.82147 31048 ft 515 kts 131°
2026-04-26 08:31 16.81941 -49.76337 31051 ft 515 kts 131°
2026-04-26 08:31 16.77471 -49.70494 31047 ft 515 kts 131°
2026-04-26 08:32 16.72992 -49.64644 31061 ft 515 kts 131°
2026-04-26 08:32 16.68508 -49.58793 31043 ft 516 kts 131°
2026-04-26 08:33 16.64046 -49.52974 31047 ft 516 kts 131°
2026-04-26 08:33 16.59562 -49.47132 31058 ft 516 kts 131°
2026-04-26 08:34 16.55059 -49.41270 31049 ft 516 kts 131°
2026-04-26 08:34 16.50571 -49.35433 31045 ft 516 kts 131°
2026-04-26 08:35 16.46100 -49.29622 31060 ft 516 kts 131°
2026-04-26 08:35 16.41613 -49.23795 31060 ft 515 kts 131°
2026-04-26 08:36 16.37119 -49.17964 31041 ft 515 kts 131°
2026-04-26 08:36 16.32677 -49.12205 31058 ft 515 kts 131°
2026-04-26 08:37 16.28145 -49.06334 31055 ft 514 kts 131°
2026-04-26 08:37 16.23688 -49.00565 31054 ft 513 kts 131°
2026-04-26 08:38 16.19299 -48.94889 31055 ft 511 kts 131°
2026-04-26 08:38 16.14843 -48.89131 31057 ft 510 kts 131°
2026-04-26 08:39 16.10393 -48.83385 31051 ft 509 kts 131°
2026-04-26 08:39 16.05980 -48.77691 31053 ft 509 kts 131°
2026-04-26 08:40 16.01535 -48.71961 31058 ft 509 kts 131°
2026-04-26 08:40 15.97079 -48.66221 31054 ft 510 kts 131°
2026-04-26 08:41 15.92620 -48.60482 31053 ft 510 kts 131°
2026-04-26 08:41 15.88149 -48.54731 31055 ft 510 kts 131°
2026-04-26 08:42 15.83718 -48.49036 31054 ft 510 kts 131°
2026-04-26 08:42 15.79250 -48.43298 31054 ft 509 kts 131°
2026-04-26 08:43 15.74792 -48.37577 31052 ft 509 kts 131°
2026-04-26 08:43 15.70357 -48.31891 31055 ft 508 kts 131°
2026-04-26 08:44 15.65911 -48.26194 31057 ft 508 kts 131°
2026-04-26 08:44 15.61465 -48.20503 31057 ft 508 kts 131°
2026-04-26 08:45 15.56992 -48.14781 31058 ft 508 kts 131°
2026-04-26 08:45 15.52552 -48.09105 31056 ft 509 kts 130°
2026-04-26 08:46 15.48071 -48.03383 31056 ft 509 kts 131°
2026-04-26 08:46 15.43668 -47.97763 31054 ft 509 kts 130°
2026-04-26 08:47 15.39233 -47.92106 31056 ft 509 kts 130°
2026-04-26 08:47 15.34763 -47.86410 31052 ft 509 kts 130°
2026-04-26 08:48 15.30281 -47.80702 31054 ft 509 kts 130°
2026-04-26 08:48 15.25825 -47.75031 31054 ft 509 kts 130°
2026-04-26 08:49 15.21374 -47.69372 31054 ft 509 kts 130°
2026-04-26 08:49 15.16901 -47.63688 31054 ft 508 kts 130°
2026-04-26 08:50 15.12453 -47.58041 31061 ft 507 kts 130°
2026-04-26 08:50 15.07982 -47.52368 31052 ft 505 kts 130°
2026-04-26 08:51 15.01359 -47.43972 31053 ft 503 kts 130°
2026-04-26 08:52 14.96933 -47.38368 31055 ft 502 kts 130°
2026-04-26 08:52 14.92531 -47.32797 31058 ft 502 kts 130°
2026-04-26 08:53 14.88085 -47.27174 31050 ft 502 kts 130°
2026-04-26 08:53 14.83684 -47.21612 31053 ft 502 kts 130°
2026-04-26 08:54 14.79248 -47.16010 31044 ft 504 kts 130°
2026-04-26 08:54 14.74802 -47.10402 31055 ft 504 kts 130°
2026-04-26 08:55 14.70358 -47.04796 31049 ft 504 kts 130°
2026-04-26 08:55 14.66047 -46.99365 31053 ft 503 kts 130°
2026-04-26 08:56 14.61588 -46.93749 31048 ft 502 kts 130°
2026-04-26 08:56 14.57158 -46.88174 31055 ft 501 kts 130°
2026-04-26 08:57 14.52735 -46.82612 31048 ft 501 kts 130°
2026-04-26 08:57 14.48297 -46.77037 31060 ft 502 kts 130°
2026-04-26 08:58 14.43865 -46.71470 31110 ft 504 kts 130°
2026-04-26 08:58 14.41637 -46.68675 31425 ft 502 kts 130°
2026-04-26 08:58 14.39454 -46.65935 31808 ft 499 kts 130°
2026-04-26 08:58 14.37240 -46.63158 32057 ft 500 kts 130°
2026-04-26 08:59 14.35036 -46.60393 32319 ft 501 kts 130°
2026-04-26 08:59 14.32821 -46.57618 32618 ft 498 kts 130°
2026-04-26 08:59 14.30639 -46.54883 33027 ft 495 kts 131°
2026-04-26 09:00 14.26220 -46.49350 33063 ft 502 kts 131°
2026-04-26 09:00 14.21775 -46.43789 33061 ft 500 kts 130°
2026-04-26 09:01 14.17369 -46.38277 33053 ft 495 kts 130°